Group_ship,Cruise,JD_GMT,Date_DDMMYYYY,TIME_HH:MM:SS,Lat_dec_degree,Long_dec_degree,xCO2eq_ppm,xCO2a_ppm,Pres_Equi_hPa,Pres_sealevel_hPa,EqTemp_C,SST(TSG)_C,Sal(TSG)_Permil,Water_flow_l/min,Gasflow_IR_ml/min,Temp_IR_C,Pres_IR_hPa,Ship_heading_true_degree,Ship_speed_knot,Wind_dir_rel_degree,Wind_speed_rel_m/s,fCO2W@SST_uatm,Qcflag_water,fCO2a_uatm,Qcflag_air,dfCO2_uatm,Fluoro_ug/l,Wind_speed_true_m/s,Wind_dir_true_degree,Air_temp_C,Oxygen
AOML_Explorer,Ex0507W,45.0168,14022005,0:24:13,25.482,-80.005,353.64,-9,1020.01,1016.81,24.67,24.94,36.312,1.38,76.06,30.1,1020.01,180.3,18,312,16.47,347.78,2,-9,9,-9,0.62,12.36,98.51,13.54,-9
AOML_Explorer,Ex0507W,45.0204,14022005,0:29:19,25.456,-80.005,356.15,-9,1019.93,1017.08,24.79,25.06,36.389,1.37,76.08,30.11,1019.93,181.4,18.1,311,17.5,350.11,2,-9,9,-9,0.73,13.37,100.82,20.14,-9
AOML_Explorer,Ex0507W,45.0221,14022005,0:31:52,25.443,-80.006,357.62,-9,1019.9,1017.1,24.84,25.08,36.401,1.44,76.01,30.12,1019.9,184,18.2,311,16.99,351.09,2,-9,9,-9,0.75,13.03,101.28,20.16,-9
AOML_Explorer,Ex0507W,45.0239,14022005,0:34:25,25.43,-80.006,359.48,-9,1020.09,1017.36,24.87,25.07,36.414,1.43,75.82,30.12,1020.09,181.2,18.2,322,15.44,352.39,2,-9,9,-9,0.73,9.8,108.52,20.08,-9
AOML_Explorer,Ex0507W,45.0257,14022005,0:36:58,25.418,-80.006,360.92,-9,1019.99,1017.11,24.88,25.06,36.421,1.42,76.23,30.12,1019.99,180.9,18.3,317,16.99,353.66,2,-9,9,-9,0.72,11.96,105.52,20.23,-9
AOML_Explorer,Ex0507W,45.0274,14022005,0:39:31,25.405,-80.007,361.66,-9,1019.92,1017.11,24.87,25.05,36.425,1.41,76.11,30.12,1019.92,181.3,18.5,317,16.47,354.26,2,-9,9,-9,0.72,11.48,104.21,20.2,-9
AOML_Explorer,Ex0507W,45.0292,14022005,0:42:04,25.391,-80.007,362.15,-9,1020.07,1017.13,24.87,25.04,36.426,1.43,76.06,30.12,1020.07,182.5,18.5,311,15.44,354.76,2,-9,9,-9,0.72,11.76,94.92,20.15,-9
AOML_Explorer,Ex0507W,45.031,14022005,0:44:37,25.378,-80.008,362.48,-9,1019.92,1017.1,24.86,25.03,36.434,1.43,76,30.13,1019.92,182.2,18.5,314,15.96,354.92,2,-9,9,-9,0.72,11.62,99.72,20.07,-9
AOML_Explorer,Ex0507W,45.0328,14022005,0:47:10,25.365,-80.01,362.47,-9,1020.07,1017.38,24.85,25.02,36.434,1.45,75.7,30.13,1020.07,191.2,18.5,310,14.41,354.93,2,-9,9,-9,0.72,11.21,98.91,20.14,-9
AOML_Explorer,Ex0507W,45.0345,14022005,0:49:43,25.353,-80.013,362.44,-9,1020.07,1017.38,24.84,25.01,36.426,1.44,75.95,30.13,1020.07,190.9,18.5,314,15.44,354.96,2,-9,9,-9,0.68,11.54,104.77,20.15,-9
AOML_Explorer,Ex0507W,45.0363,14022005,0:52:16,25.34,-80.016,362.27,-9,1020.17,1017.37,24.84,25.03,36.42,1.43,75.99,30.13,1020.17,194.3,18.6,311,15.44,355.21,2,-9,9,-9,0.72,11.92,105.5,20.42,-9
AOML_Explorer,Ex0507W,45.0381,14022005,0:54:49,25.327,-80.019,361.97,-9,1020.1,1017.11,24.85,25.05,36.418,1.45,76.03,30.13,1020.1,193.6,18.6,309,16.47,355.02,2,-9,9,-9,0.74,13.14,105.19,20.42,-9
AOML_Explorer,Ex0507W,45.0398,14022005,0:57:22,25.314,-80.023,361.91,-9,1019.9,1017.09,24.86,25.07,36.421,1.43,75.81,30.13,1019.9,194.4,18.4,305,15.44,354.94,2,-9,9,-9,0.74,13.06,99.35,20.36,-9
AOML_Explorer,Ex0507W,45.0416,14022005,0:59:55,25.302,-80.026,362.02,-9,1019.94,1017.38,24.88,25.08,36.416,1.45,75.74,30.13,1019.94,193.8,18.3,317,16.99,354.89,2,-9,9,-9,0.77,12.28,116.01,20.38,-9
AOML_Explorer,Ex0507W,45.0514,14022005,1:14:01,25.232,-80.046,356.39,-9,1020.06,1017.13,24.78,24.93,36.302,1.46,76.36,30.19,1020.06,193.8,18.5,308,15.44,348.91,2,-9,9,-9,0.59,12.49,101.83,20.8,-9
AOML_Explorer,Ex0507W,45.0532,14022005,1:16:34,25.219,-80.049,356.33,-9,1019.86,1017.1,24.77,24.91,36.283,1.44,75.85,30.2,1019.86,194.1,18.6,305,15.96,348.59,2,-9,9,-9,0.59,13.43,100.41,20.61,-9
AOML_Explorer,Ex0507W,45.0549,14022005,1:19:07,25.206,-80.053,356.3,-9,1019.94,1017.13,24.75,24.91,36.287,1.43,76.05,30.19,1019.94,193.7,18.4,302,16.47,348.81,2,-9,9,-9,0.58,14.3,98.86,20.68,-9
AOML_Explorer,Ex0507W,45.0567,14022005,1:21:40,25.194,-80.057,355.89,-9,1020.04,1017.13,24.75,24.89,36.279,1.39,75.98,30.2,1020.04,194.4,18.4,305,16.99,348.21,2,-9,9,-9,0.57,14.29,103.24,20.7,-9
AOML_Explorer,Ex0507W,45.0585,14022005,1:24:13,25.181,-80.06,355.9,-9,1019.98,1017.11,24.74,24.86,36.274,1.43,76.13,30.2,1019.98,194.5,18.3,309,16.47,347.97,2,-9,9,-9,0.57,13.19,106.37,20.62,-9
AOML_Explorer,Ex0507W,45.0603,14022005,1:26:46,25.168,-80.064,355.82,-9,1019.88,1017.11,24.72,24.83,36.264,1.45,75.95,30.21,1019.88,193.8,18.3,309,18.01,347.83,2,-9,9,-9,0.11,14.5,109.16,20.79,-9
AOML_Explorer,Ex0507W,45.062,14022005,1:29:19,25.156,-80.067,355.59,-9,1019.88,1016.85,24.69,24.81,36.254,1.44,76.01,30.21,1019.88,193.8,18.4,304,16.99,347.6,2,-9,9,-9,0.04,14.46,101.67,20.72,-9
AOML_Explorer,Ex0507W,45.0638,14022005,1:31:52,25.143,-80.071,355.26,-9,1019.83,1016.83,24.67,24.79,36.244,1.41,75.9,30.22,1019.83,194.8,18.4,307,18.01,347.35,2,-9,9,-9,0.03,14.88,107.51,20.82,-9
AOML_Explorer,Ex0507W,45.0656,14022005,1:34:25,25.131,-80.075,354.97,-9,1020,1017.12,24.65,24.78,36.241,1.43,76.03,30.22,1020,194.2,18.3,303,17.5,347.24,2,-9,9,-9,0.03,15.08,102.18,20.85,-9
AOML_Explorer,Ex0507W,45.0673,14022005,1:36:58,25.118,-80.078,354.63,-9,1019.92,1016.58,24.63,24.74,36.244,1.42,75.95,30.22,1019.92,194.5,18.4,301,19.56,346.65,2,-9,9,-9,0.03,17.24,103.71,20.92,-9
AOML_Explorer,Ex0507W,45.0691,14022005,1:39:31,25.105,-80.082,354.61,-9,1019.98,1017.1,24.62,24.73,36.236,1.39,76.02,30.23,1019.98,194.4,18.4,305,16.99,346.72,2,-9,9,-9,0.24,14.29,103.28,21,-9
AOML_Explorer,Ex0507W,45.0709,14022005,1:42:04,25.093,-80.086,354.68,-9,1020.03,1017.1,24.59,24.71,36.233,1.45,75.89,30.24,1020.03,194.8,18.4,308,15.44,346.77,2,-9,9,-9,0.26,12.6,102.42,20.91,-9
AOML_Explorer,Ex0507W,45.0727,14022005,1:44:37,25.08,-80.089,354.43,-9,1020.17,1017.67,24.57,24.7,36.232,1.42,75.91,30.24,1020.17,194.4,18.3,316,15.96,346.86,2,-9,9,-9,0.28,11.65,112.31,20.8,-9
AOML_Explorer,Ex0507W,45.0744,14022005,1:47:10,25.068,-80.093,354.09,-9,1020,1017.38,24.56,24.71,36.236,1.43,75.78,30.25,1020,194.5,18.3,309,15.96,346.67,2,-9,9,-9,0.31,12.88,104.52,20.87,-9
AOML_Explorer,Ex0507W,45.0762,14022005,1:49:43,25.055,-80.097,354.14,-9,1020.02,1016.82,24.56,24.69,36.27,1.44,75.56,30.25,1020.02,195,18.5,303,17.5,346.48,2,-9,9,-9,0.22,15.25,101.66,20.86,-9
AOML_Explorer,Ex0507W,45.078,14022005,1:52:16,25.043,-80.1,354.47,-9,1020.09,1017.12,24.57,24.64,36.276,1.46,75.67,30.26,1020.09,194.6,18.5,303,16.47,346.1,2,-9,9,-9,0.38,14.26,99.81,21,-9
AOML_Explorer,Ex0507W,45.0797,14022005,1:54:49,25.03,-80.104,354.58,-9,1019.8,1016.57,24.52,24.57,36.292,1.43,75.57,30.26,1019.8,195.2,18.6,306,19.04,345.88,2,-9,9,-9,0.33,16.04,107.86,20.96,-9
AOML_Explorer,Ex0507W,45.0815,14022005,1:57:22,25.017,-80.108,355.16,-9,1020.04,1017.13,24.47,24.48,36.294,1.44,75.56,30.27,1020.04,195.1,18.6,313,16.99,345.97,2,-9,9,-9,0.31,13.03,111.32,20.99,-9
AOML_Explorer,Ex0507W,45.0931,14022005,2:14:01,24.936,-80.12,353.45,-9,1020.11,1016.84,24.45,24.75,36.457,1.45,75.85,30.36,1020.11,187.4,17.3,300,18.53,348.05,2,-9,9,-9,0.33,15.77,100.51,20.86,-9
AOML_Explorer,Ex0507W,45.0948,14022005,2:16:34,24.924,-80.122,355.32,-9,1020.17,1016.82,24.55,24.77,36.488,1.46,75.71,30.38,1020.17,188,17.3,307,20.07,348.91,2,-9,9,-9,0.35,16.12,110.82,20.89,-9
AOML_Explorer,Ex0507W,45.0966,14022005,2:19:07,24.912,-80.124,356.81,-9,1020.09,1016.57,24.61,24.76,36.492,1.43,75.32,30.39,1020.09,187.7,17.4,305,20.07,349.42,2,-9,9,-9,0.35,16.45,107.99,20.97,-9
AOML_Explorer,Ex0507W,45.0984,14022005,2:21:40,24.9,-80.126,357.94,-9,1020.05,1017.13,24.61,24.76,36.487,1.43,75.7,30.4,1020.05,187.4,17.4,307,20.07,350.41,2,-9,9,-9,0.32,16.12,109.95,20.94,-9
AOML_Explorer,Ex0507W,45.1002,14022005,2:24:13,24.888,-80.128,358.43,-9,1020.13,1016.83,24.61,24.75,36.491,1.43,75.98,30.4,1020.13,187.5,17.6,306,17.5,350.86,2,-9,9,-9,0.33,13.99,103.92,20.98,-9
AOML_Explorer,Ex0507W,45.1019,14022005,2:26:46,24.875,-80.13,358.76,-9,1020.16,1016.83,24.61,24.73,36.492,1.46,75.48,30.4,1020.16,188.3,17.7,300,18.01,350.99,2,-9,9,-9,0.32,15.27,100.02,20.95,-9
AOML_Explorer,Ex0507W,45.1037,14022005,2:29:19,24.863,-80.133,359.01,-9,1020.15,1017.12,24.6,24.73,36.508,1.42,75.71,30.41,1020.15,195.6,17.7,305,19.04,351.35,2,-9,9,-9,0.32,15.73,112.05,20.9,-9
AOML_Explorer,Ex0507W,45.1055,14022005,2:31:52,24.851,-80.137,358.89,-9,1020.16,1017.41,24.59,24.72,36.494,1.42,75.81,30.41,1020.16,196,17.8,307,17.5,351.18,2,-9,9,-9,0.33,14.16,110.95,20.75,-9
AOML_Explorer,Ex0507W,45.1072,14022005,2:34:25,24.839,-80.141,358.77,-9,1020.27,1017.4,24.57,24.68,36.509,1.45,76.1,30.41,1020.27,196.8,17.8,307,17.5,350.76,2,-9,9,-9,0.38,14.25,111.02,20.79,-9
AOML_Explorer,Ex0507W,45.109,14022005,2:36:58,24.827,-80.145,358.81,-9,1020.22,1017.14,24.55,24.65,36.501,1.46,75.76,30.41,1020.22,196.9,17.9,309,19.56,350.75,2,-9,9,-9,0.43,15.75,116.74,20.83,-9
AOML_Explorer,Ex0507W,45.1108,14022005,2:39:31,24.815,-80.149,359.1,-9,1020.36,1017.38,24.53,24.62,36.504,1.42,75.48,30.41,1020.36,196.9,18,304,16.47,350.98,2,-9,9,-9,0.38,13.91,105.1,20.9,-9
AOML_Explorer,Ex0507W,45.1125,14022005,2:42:04,24.803,-80.153,359.44,-9,1020.3,1017.66,24.51,24.59,36.508,1.43,75.94,30.41,1020.3,198.4,18.3,311,16.47,351.15,2,-9,9,-9,0.39,12.93,111.99,20.88,-9
AOML_Explorer,Ex0507W,45.1143,14022005,2:44:37,24.79,-80.158,359.73,-9,1020.43,1017.38,24.47,24.64,36.496,1.44,76.04,30.41,1020.43,198.7,18.4,303,17.5,352.77,2,-9,9,-9,0.36,15.26,105.47,20.95,-9
AOML_Explorer,Ex0507W,45.1161,14022005,2:47:10,24.778,-80.163,359.87,-9,1020.45,1017.66,24.48,24.68,36.497,1.46,75.94,30.42,1020.45,199.1,18.4,309,15.44,353.22,2,-9,9,-9,0.32,12.61,106.65,21.04,-9
AOML_Explorer,Ex0507W,45.1179,14022005,2:49:43,24.766,-80.167,359.67,-9,1020.29,1017.68,24.52,24.7,36.482,1.44,75.03,30.42,1020.29,199.4,18.4,307,15.96,352.62,2,-9,9,-9,0.33,13.46,105.75,21.1,-9
AOML_Explorer,Ex0507W,45.1196,14022005,2:52:16,24.754,-80.172,359.21,-9,1020.25,1017.13,24.55,24.72,36.472,1.45,75.38,30.42,1020.25,200.3,18.5,307,18.53,352.1,2,-9,9,-9,0.36,15.68,111.62,21.07,-9
AOML_Explorer,Ex0507W,45.1214,14022005,2:54:49,24.742,-80.178,359.03,-9,1020.29,1017.11,24.57,24.75,36.472,1.44,75.76,30.42,1020.29,208.2,18.7,305,18.53,352.02,2,-9,9,-9,0.36,16.07,116.79,21.23,-9
AOML_Explorer,Ex0507W,45.1232,14022005,2:57:22,24.73,-80.186,359.18,-9,1020.28,1017.13,24.59,24.73,36.496,1.42,75.93,30.42,1020.28,216.4,19,289,15.96,351.65,2,-9,9,-9,0.35,16.71,104.82,21.28,-9
AOML_Explorer,Ex0507W,45.1365,14022005,3:16:34,24.662,-80.265,360.01,-9,1019.93,1016.82,24.66,24.76,36.415,1.41,76.24,30.5,1019.93,227.9,18.1,290,15.96,351.84,2,-9,9,-9,0.35,16.62,117.42,21.21,-9
AOML_Explorer,Ex0507W,45.1383,14022005,3:19:07,24.654,-80.276,361.36,-9,1020.17,1017.12,24.64,24.74,36.381,1.42,76.04,30.51,1020.17,228.4,18.1,287,13.9,353.25,2,-9,9,-9,0.32,15.36,111.5,21.37,-9
AOML_Explorer,Ex0507W,45.14,14022005,3:21:40,24.645,-80.286,362.41,-9,1020.24,1017.38,24.6,24.67,36.39,1.4,76.3,30.51,1020.24,227.9,18.1,292,13.9,353.74,2,-9,9,-9,0.36,14.62,114.6,21.19,-9
AOML_Explorer,Ex0507W,45.1418,14022005,3:24:13,24.637,-80.297,362.72,-9,1020.22,1017.13,24.57,24.49,36.314,1.41,75.89,30.51,1020.22,228,18.1,292,15.44,352.15,2,-9,9,-9,0.27,15.97,117.67,21.22,-9
AOML_Explorer,Ex0507W,45.1436,14022005,3:26:46,24.628,-80.308,362.59,-9,1020.28,1016.85,24.43,24.48,36.279,1.38,75.79,30.52,1020.28,228.6,18.3,290,16.47,353.85,2,-9,9,-9,0.26,17.36,117.42,21.24,-9
AOML_Explorer,Ex0507W,45.1454,14022005,3:29:19,24.619,-80.318,360.47,-9,1019.98,1017.13,24.37,24.41,36.298,1.4,76.19,30.51,1019.98,230,18.6,289,14.41,351.57,2,-9,9,-9,0.28,15.77,113.82,21.18,-9
AOML_Explorer,Ex0507W,45.1471,14022005,3:31:52,24.611,-80.33,358.49,-9,1020.03,1016.84,24.33,24.28,36.275,1.42,75.93,30.51,1020.03,229.2,18.6,288,16.99,348.5,2,-9,9,-9,0.25,-0.51,-1,21.36,-9
AOML_Explorer,Ex0507W,45.1507,14022005,3:36:58,24.593,-80.351,355.51,-9,1020.28,1017.44,24.05,23.21,36.416,1.38,76.06,30.5,1020.28,230.2,18.5,301,15.44,335.87,2,-9,9,-9,0.35,14.37,127.74,21.36,-9
AOML_Explorer,Ex0507W,45.1524,14022005,3:39:31,24.584,-80.361,354.23,-9,1020.13,1017.15,23.33,23.16,36.418,1.4,76,30.5,1020.13,227.2,18.5,293,17.5,343.51,2,-9,9,-9,0.34,17.13,123.4,21.46,-9
AOML_Explorer,Ex0507W,45.1542,14022005,3:42:04,24.575,-80.372,352.03,-9,1020.2,1017.41,23.2,23.09,36.426,1.42,75.72,30.5,1020.2,229.1,18.6,291,14.41,342.22,2,-9,9,-9,0.34,14.93,117.13,21.36,-9
AOML_Explorer,Ex0507W,45.156,14022005,3:44:37,24.566,-80.382,350.01,-9,1020.24,1017.41,23.12,23.04,36.435,1.41,76.2,30.5,1020.24,226.7,18.6,290,15.44,340.67,2,-9,9,-9,0.34,15.87,116.47,21.39,-9
AOML_Explorer,Ex0507W,45.1578,14022005,3:47:10,24.557,-80.393,348.25,-9,1020.25,1017.15,23.06,23.05,36.422,1.39,75.97,30.5,1020.25,228.5,18.7,294,16.47,339.83,2,-9,9,-9,0.31,16.2,123,21.19,-9
AOML_Explorer,Ex0507W,45.1595,14022005,3:49:43,24.549,-80.404,347.14,-9,1020.51,1017.4,23.04,23.05,36.43,1.39,75.83,30.49,1020.51,228.4,18.6,295,12.87,339.21,2,-9,9,-9,0.29,13.1,115.38,21.29,-9
AOML_Explorer,Ex0507W,45.1613,14022005,3:52:16,24.54,-80.415,346.24,-9,1020.19,1017.14,23.04,23.01,36.44,1.39,75.89,30.49,1020.19,228,18.6,294,15.44,337.71,2,-9,9,-9,0.28,15.28,120.68,21.37,-9
AOML_Explorer,Ex0507W,45.1631,14022005,3:54:49,24.531,-80.426,345.7,-9,1020.22,1017.13,23.02,22.95,36.456,1.41,75.83,30.48,1020.22,227.5,18.8,296,14.93,336.66,2,-9,9,-9,0.28,14.52,120.6,21.33,-9
AOML_Explorer,Ex0507W,45.1648,14022005,3:57:22,24.522,-80.436,345.23,-9,1020.12,1017.13,22.98,22.93,36.452,1.43,75.75,30.48,1020.12,228,18.9,297,15.96,336.49,2,-9,9,-9,0.25,15.24,123.9,21.3,-9
AOML_Explorer,Ex0507W,45.1666,14022005,3:59:55,24.513,-80.447,344.78,-9,1020.21,1017.13,22.93,22.9,36.456,1.4,75.8,30.48,1020.21,227.6,18.9,293,15.96,336.25,2,-9,9,-9,0.26,15.99,119.69,21.32,-9
AOML_Explorer,Ex0507W,45.1764,14022005,4:14:01,24.462,-80.508,342.81,-9,1020.06,1017.4,22.71,22.66,36.468,1.41,75.77,30.51,1020.06,227.3,19.1,297,14.41,334.21,2,-9,9,-9,0.32,14.03,119.08,21.45,-9
AOML_Explorer,Ex0507W,45.1782,14022005,4:16:34,24.453,-80.519,342.88,-9,1019.98,1017.13,22.68,22.62,36.467,1.4,76.39,30.51,1019.98,227.7,19.2,298,15.96,334.23,2,-9,9,-9,0.31,15.04,124.24,21.32,-9
AOML_Explorer,Ex0507W,45.1799,14022005,4:19:07,24.444,-80.53,342.91,-9,1020.21,1017.38,22.65,22.62,36.463,1.43,75.83,30.52,1020.21,228.2,19.3,299,14.41,334.75,2,-9,9,-9,0.31,13.64,121.76,21.42,-9
AOML_Explorer,Ex0507W,45.1817,14022005,4:21:40,24.435,-80.541,342.91,-9,1020.15,1017.12,22.64,22.63,36.46,1.39,75.9,30.52,1020.15,227.7,19.3,296,15.96,334.88,2,-9,9,-9,0.3,15.31,122.74,21.33,-9
AOML_Explorer,Ex0507W,45.1835,14022005,4:24:13,24.426,-80.552,342.87,-9,1020.12,1017.39,22.63,22.63,36.458,1.4,76.11,30.52,1020.12,227.3,19.3,299,14.93,335.02,2,-9,9,-9,0.3,13.99,122.46,21.33,-9
AOML_Explorer,Ex0507W,45.1853,14022005,4:26:46,24.417,-80.564,342.95,-9,1020.34,1017.66,22.63,22.61,36.473,1.41,76.02,30.51,1020.34,232.3,19.5,303,13.9,334.87,2,-9,9,-9,0.32,12.52,127.45,21.24,-9
AOML_Explorer,Ex0507W,45.187,14022005,4:29:19,24.409,-80.576,343,-9,1020.35,1017.13,22.63,22.56,36.478,1.39,75.62,30.51,1020.35,237.5,19.9,289,14.41,334.34,2,-9,9,-9,0.38,15.33,122.59,21.29,-9
AOML_Explorer,Ex0507W,45.1888,14022005,4:31:52,24.402,-80.59,343.13,-9,1020.2,1017.67,22.59,22.53,36.481,1.42,76.19,30.5,1020.2,242.1,20.2,299,13.9,334.54,2,-9,9,-9,0.41,13.26,132.88,21.28,-9
AOML_Explorer,Ex0507W,45.1906,14022005,4:34:25,24.396,-80.604,343.3,-9,1020.13,1017.38,22.55,22.52,36.48,1.4,75.82,30.5,1020.13,244.2,20.3,297,13.38,335.03,2,-9,9,-9,0.37,13.24,131.82,21.2,-9
AOML_Explorer,Ex0507W,45.1923,14022005,4:36:58,24.389,-80.619,343.45,-9,1020.32,1017.66,22.54,22.51,36.472,1.41,76.01,30.49,1020.32,244.8,20.4,291,11.84,335.34,2,-9,9,-9,0.5,13.08,123.87,21.2,-9
AOML_Explorer,Ex0507W,45.1941,14022005,4:39:31,24.383,-80.633,343.76,-9,1020.14,1017.65,22.52,22.52,36.479,1.41,76.08,30.48,1020.14,245.1,20.4,297,12.35,335.94,2,-9,9,-9,0.41,12.48,129.45,21.29,-9
AOML_Explorer,Ex0507W,45.1959,14022005,4:42:04,24.377,-80.647,344.4,-9,1020.17,1017.39,22.53,22.53,36.479,1.39,76.09,30.48,1020.17,244.1,20.3,287,11.84,336.51,2,-9,9,-9,0.36,13.75,120.73,21.23,-9
AOML_Explorer,Ex0507W,45.1977,14022005,4:44:37,24.371,-80.662,344.56,-9,1020.21,1017.39,22.54,22.42,36.506,1.42,75.81,30.47,1020.21,244.7,20.3,291,13.9,335.22,2,-9,9,-9,0.44,14.48,130.17,21.11,-9
AOML_Explorer,Ex0507W,45.1994,14022005,4:47:10,24.365,-80.676,344.24,-9,1020.21,1017.66,22.48,22.4,36.475,1.4,76.02,30.46,1020.21,245.1,20.5,290,11.32,335.32,2,-9,9,-9,0.52,12.92,121.7,21.22,-9
AOML_Explorer,Ex0507W,45.2012,14022005,4:49:43,24.359,-80.691,344.39,-9,1020.23,1017.39,22.41,22.43,36.479,1.4,75.92,30.46,1020.23,245.6,20.7,290,12.87,336.89,2,-9,9,-9,0.43,14.03,126.63,21.1,-9
AOML_Explorer,Ex0507W,45.203,14022005,4:52:16,24.353,-80.705,344.86,-9,1020.2,1017.38,22.43,22.43,36.477,1.4,75.61,30.45,1020.2,245.2,20.7,289,10.81,337.06,2,-9,9,-9,0.45,12.73,119.38,21.19,-9
AOML_Explorer,Ex0507W,45.2047,14022005,4:54:49,24.347,-80.72,344.73,-9,1020.17,1017.38,22.44,22.54,36.398,1.41,75.81,30.45,1020.17,245,20.6,295,14.41,338.14,2,-9,9,-9,0.32,14.26,134.06,21.02,-9
AOML_Explorer,Ex0507W,45.2065,14022005,4:57:22,24.341,-80.734,344.72,-9,1020.01,1017.12,22.44,22.76,36.414,1.41,76.39,30.44,1020.01,248.1,20.5,289,15.44,340.85,2,-9,9,-9,0.25,15.99,135.8,21.14,-9
AOML_Explorer,Ex0507W,45.2083,14022005,4:59:55,24.335,-80.749,344.26,-9,1020.11,1017.13,22.63,22.84,36.436,1.42,75.76,30.44,1020.11,246.4,20.6,284,11.84,338.94,2,-9,9,-9,0.26,14.13,121.37,21.12,-9
AOML_Explorer,Ex0507W,45.2181,14022005,5:14:01,24.303,-80.83,341.31,-9,1020.06,1017.36,23.06,23.11,36.405,1.4,75.64,30.48,1020.06,246.3,20.5,284,11.84,333.77,2,-9,9,-9,0.2,14.08,121.55,21.26,-9
AOML_Explorer,Ex0507W,45.2198,14022005,5:16:34,24.297,-80.845,341.38,-9,1019.92,1017.39,23.07,23.08,36.405,1.41,75.89,30.48,1019.92,246.6,20.5,286,10.81,333.41,2,-9,9,-9,0.2,13.13,119.56,21.24,-9
AOML_Explorer,Ex0507W,45.2216,14022005,5:19:07,24.291,-80.859,341.86,-9,1019.97,1016.81,23.04,23.01,36.434,1.4,75.59,30.48,1019.97,246.3,20.5,285,14.93,333.31,2,-9,9,-9,0.21,16.15,130.32,21.14,-9
AOML_Explorer,Ex0507W,45.2234,14022005,5:21:40,24.285,-80.874,342.03,-9,1019.82,1016.84,23.02,22.96,36.411,1.43,75.98,30.48,1019.82,246.5,20.3,284,13.38,333.09,2,-9,9,-9,0.22,15.18,126.21,21.31,-9
AOML_Explorer,Ex0507W,45.2252,14022005,5:24:13,24.28,-80.889,342.3,-9,1020.04,1016.84,22.94,22.82,36.47,1.4,75.78,30.48,1020.04,245.8,20.2,275,13.38,332.76,2,-9,9,-9,0.26,16.42,120.21,21.22,-9
AOML_Explorer,Ex0507W,45.2287,14022005,5:29:19,24.268,-80.918,342.1,-9,1019.7,1016.83,22.66,22.59,36.481,1.38,75.65,30.48,1019.7,245.3,20.6,284,12.87,333.16,2,-9,9,-9,0.34,14.51,124.64,21.34,-9
AOML_Explorer,Ex0507W,45.2305,14022005,5:31:52,24.262,-80.933,342.07,-9,1019.63,1016.84,22.6,22.62,36.472,1.41,75.72,30.47,1019.63,246.4,20.7,280,12.35,334.32,2,-9,9,-9,0.34,14.78,121.56,21.36,-9
AOML_Explorer,Ex0507W,45.2322,14022005,5:34:25,24.256,-80.947,341.99,-9,1019.66,1017.13,22.61,22.56,36.478,1.37,75.78,30.47,1019.66,247,20.6,285,10.29,333.3,2,-9,9,-9,0.38,12.59,118.73,21.22,-9
AOML_Explorer,Ex0507W,45.234,14022005,5:36:58,24.251,-80.962,342.01,-9,1019.72,1016.86,22.58,22.79,36.331,1.42,75.66,30.47,1019.72,247.8,20.4,276,11.32,336.71,2,-9,9,-9,0.22,14.63,118.13,21.28,-9
AOML_Explorer,Ex0507W,45.2358,14022005,5:39:31,24.245,-80.977,342.48,-9,1019.7,1016.85,22.59,22.93,36.414,1.42,75.72,30.46,1019.7,247.1,20.3,274,10.29,338.79,2,-9,9,-9,0.2,14.09,113.86,21.26,-9
AOML_Explorer,Ex0507W,45.2375,14022005,5:42:04,24.239,-80.991,342.34,-9,1019.61,1017.13,22.86,22.95,36.408,1.4,75.18,30.45,1019.61,246.5,20.3,278,10.29,335.39,2,-9,9,-9,0.22,13.54,115.24,21.36,-9
AOML_Explorer,Ex0507W,45.2393,14022005,5:44:37,24.233,-81.006,341.73,-9,1019.61,1016.84,22.9,22.93,36.434,1.41,75.57,30.45,1019.61,246.3,20.4,281,11.84,334.03,2,-9,9,-9,0.31,14.11,121.49,21.33,-9
AOML_Explorer,Ex0507W,45.2411,14022005,5:47:10,24.228,-81.021,341.63,-9,1019.56,1016.85,22.91,23.71,36.228,1.43,75.55,30.45,1019.56,246.5,20.2,284,10.81,343.68,2,-9,9,-9,0.17,12.91,120.47,21.33,-9
AOML_Explorer,Ex0507W,45.2429,14022005,5:49:43,24.222,-81.035,342.09,-9,1019.43,1016.85,23.37,24.01,36.22,1.39,75.6,30.44,1019.43,246.9,20.1,274,10.29,341.65,2,-9,9,-9,0.14,13.94,114.26,21.37,-9
AOML_Explorer,Ex0507W,45.2446,14022005,5:52:16,24.216,-81.049,342.39,-9,1019.46,1016.58,23.74,24.27,36.22,1.42,75.76,30.44,1019.46,246.6,20.1,283,12.35,340.46,2,-9,9,-9,0.15,14.04,125.15,21.57,-9
AOML_Explorer,Ex0507W,45.2464,14022005,5:54:49,24.211,-81.064,343.6,-9,1019.4,1016.59,24.01,24.46,36.231,1.41,75.49,30.43,1019.4,246.7,20.2,280,11.84,340.37,2,-9,9,-9,0.16,14.24,121.47,21.59,-9
AOML_Explorer,Ex0507W,45.2482,14022005,5:57:22,24.205,-81.078,345.12,-9,1019.34,1016.82,24.2,24.48,36.247,1.41,75.4,30.43,1019.34,246.2,20.2,286,9.78,339.63,2,-9,9,-9,0.18,11.99,117.4,21.61,-9
AOML_Explorer,Ex0507W,45.2499,14022005,5:59:55,24.199,-81.093,347.04,-9,1019.46,1016.85,24.29,24.49,36.248,1.42,75.27,30.42,1019.46,246.2,20.2,274,8.75,340.36,2,-9,9,-9,0.19,12.99,108.34,21.82,-9
AOML_Explorer,Ex0507W,45.2615,14022005,6:16:34,24.162,-81.188,351.59,-9,1019.29,1016.26,24.63,24.89,36.263,1.38,76.18,30.47,1019.29,246.6,20.4,275,11.84,345.41,2,-9,9,-9,0.23,15.26,117.39,21.96,-9
AOML_Explorer,Ex0507W,45.2633,14022005,6:19:07,24.156,-81.202,352.92,-9,1019.17,1016.29,24.71,24.83,36.257,1.38,75.78,30.47,1019.17,246.7,20.3,280,11.32,344.77,2,-9,9,-9,0.18,14.16,118.99,21.83,-9
AOML_Explorer,Ex0507W,45.265,14022005,6:21:40,24.15,-81.217,354.24,-9,1019.21,1016.3,24.68,24.68,36.26,1.39,75.84,30.48,1019.21,246.4,20.3,282,12.35,344.65,2,-9,9,-9,0.19,14.65,122.39,21.95,-9
AOML_Explorer,Ex0507W,45.2668,14022005,6:24:13,24.144,-81.231,355.12,-9,1019.24,1016.29,24.59,24.81,36.13,1.38,75.74,30.47,1019.24,247.1,20.2,281,10.81,348.34,2,-9,9,-9,0.16,13.64,118.39,21.88,-9
AOML_Explorer,Ex0507W,45.2686,14022005,6:26:46,24.139,-81.246,354.98,-9,1019.19,1016.57,24.59,24.95,36.109,1.37,75.64,30.47,1019.19,246.9,20.1,287,11.32,349.99,2,-9,9,-9,0.16,13.01,123.43,22.17,-9
AOML_Explorer,Ex0507W,45.2704,14022005,6:29:19,24.133,-81.26,354.4,-9,1019.16,1016.3,24.72,25.05,36.098,1.4,75.89,30.47,1019.16,246.9,20,285,12.87,348.91,2,-9,9,-9,0.17,14.38,127.08,22.01,-9
AOML_Explorer,Ex0507W,45.2721,14022005,6:31:52,24.127,-81.274,354.69,-9,1019.11,1016.31,24.82,25.11,36.087,1.36,76.04,30.47,1019.11,246.3,19.9,289,13.38,348.52,2,-9,9,-9,0.18,14.06,130.82,21.99,-9
AOML_Explorer,Ex0507W,45.2739,14022005,6:34:25,24.122,-81.288,355.33,-9,1019.08,1016.3,24.89,25.18,36.081,1.38,75.57,30.47,1019.08,247.1,19.8,291,13.38,349.12,2,-9,9,-9,0.21,13.78,133.2,22.29,-9
AOML_Explorer,Ex0507W,45.2757,14022005,6:36:58,24.116,-81.302,355.97,-9,1019.18,1016.57,24.95,25.22,36.085,1.37,76.09,30.47,1019.18,246.9,19.8,288,11.32,349.49,2,-9,9,-9,0.19,12.65,125.15,22.12,-9
AOML_Explorer,Ex0507W,45.2774,14022005,6:39:31,24.111,-81.317,356.68,-9,1019.19,1016.31,25.01,25.25,36.083,1.35,75.75,30.47,1019.19,246.3,19.7,281,11.32,349.9,2,-9,9,-9,0.21,13.72,120.49,22.07,-9
AOML_Explorer,Ex0507W,45.2792,14022005,6:42:04,24.105,-81.331,357.52,-9,1019.15,1016.04,25.04,25.3,36.079,1.36,76.01,30.46,1019.15,246.7,19.7,284,13.38,350.81,2,-9,9,-9,0.24,14.7,128.83,22.18,-9
AOML_Explorer,Ex0507W,45.281,14022005,6:44:37,24.1,-81.345,358.04,-9,1019.2,1016.3,25.08,25.33,36.081,1.34,75.76,30.46,1019.2,246.2,19.6,291,12.87,351.3,2,-9,9,-9,0.24,13.01,132.53,22.22,-9
AOML_Explorer,Ex0507W,45.2828,14022005,6:47:10,24.094,-81.358,358.56,-9,1019.14,1016.29,25.12,25.35,36.08,1.37,75.85,30.46,1019.14,245.9,19.5,292,12.35,351.44,2,-9,9,-9,0.27,12.42,131.66,22.01,-9
AOML_Explorer,Ex0507W,45.2845,14022005,6:49:43,24.089,-81.372,358.99,-9,1019.13,1016.3,25.14,25.37,36.084,1.36,75.69,30.45,1019.13,246.7,19.5,285,11.32,351.82,2,-9,9,-9,0.26,12.8,124.54,22.2,-9
AOML_Explorer,Ex0507W,45.2863,14022005,6:52:16,24.083,-81.386,359.09,-9,1019.13,1016.6,25.16,25.39,36.08,1.37,76.13,30.45,1019.13,246.6,19.5,282,11.32,351.92,2,-9,9,-9,0.26,13.2,122.89,22.11,-9
AOML_Explorer,Ex0507W,45.2881,14022005,6:54:49,24.078,-81.4,359.37,-9,1019.14,1016.29,25.18,25.41,36.079,1.36,75.31,30.45,1019.14,245.9,19.6,284,10.81,352.15,2,-9,9,-9,0.25,12.52,121.88,22.23,-9
AOML_Explorer,Ex0507W,45.2898,14022005,6:57:22,24.072,-81.414,359.49,-9,1019.09,1016.6,25.2,25.43,36.075,1.36,75.75,30.45,1019.09,246.1,19.6,289,11.84,352.31,2,-9,9,-9,0.26,12.47,128.44,22.18,-9